ニート-リニア彗星

P/2002 T6 ( NEAT-LINEAR )

English version
Home page
Updated on November 13, 2023

---------------------------------------------------------------------

・ プロフィール

発見日 2002年10月4日, 10月7日
発見光度 20.1等, 19.4等
発見者 Near-Earth-Asteroid Tracking Team (Jet Propulsion Laboratory), Lincoln Laboratory Near-Earth Asteroid Research project

・ 写真集

・ 軌道要素

                    Epoch = 2003 June 10.0 TT
     T = 2003 June 27.01545 TT        Peri. = 217.57304
     e = 0.5573311                    Node  = 209.04572 2000.0
     q = 3.3870835 AU                 Incl. =  11.00925
       a =  7.6515059 AU   n = 0.04656758   P =  21.16 years

・ 星図

・ 光度変化

        m1 = -7 + 5 logΔ + 38.5 log r(t - 117)

---------------------------------------------------------------------

軌道要素は、CBET 5306に掲載されたものです。
星図は StellaNavigator Ver.2.0 for Windows (アストロアーツ 編著 / アスキー出版局刊) で作成したものです。
光度グラフはComet for Windowsで作成したものです。

---------------------------------------------------------------------

Copyright(C) Seiichi Yoshida (comet@aerith.net). All rights reserved.